Regional Weather Roundup
Issued by NWS

Home | Current Version | Previous Version | Graphics & Text | Print | Product List | Glossary On
Versions: 1 2 3 4 5 6 7 8 9 10 11 12 13 14 15 16 17 18 19 20 21 22 23 24 25 26 27 28 29 30 31 32 33 34 35 36 37 38 39 40 41 42 43 44 45 46 47 48 49 50
633
ASUS45 KABQ 271510
RWRNM
NEW MEXICO REGIONAL WEATHER ROUNDUP
NATIONAL WEATHER SERVICE ALBUQUERQUE NM
900 AM MDT WED JUL 27 2016

NOTE: "FAIR" MEANS FEW OR NO CLOUDS BELOW 12,000 FEET AGL WITH NO
       SIGNIFICANT WEATHER OR OBSTRUCTIONS TO VISION.

      THIS PRODUCT IS RELEASED AS TWO VERSIONS.  ONE VERSION NEAR
      THE TOP OF THE HOUR CONTAINING PRELIMINARY DATA FROM ALBUQUERQUE
      AND OTHER STATIONS.  A FINAL VERSION WITH ADDITIONAL DATA IS
      ISSUED ABOUT 10 MINUTES AFTER THE HOUR.

NMZ501-503-504-510>518-271600-
NORTHWEST PLATEAU/NORTHCENTRAL MOUNTAINS

CITY           SKY/WX    TMP DP  RH WIND       PRES   REMARKS
FARMINGTON     FAIR      73  47  39 E12       30.24F
LOS ALAMOS       N/A     71  48  43 NE7       30.38S
SANTA FE       FAIR      75  53  46 N10       30.31S
TAOS           FAIR      68  39  34 CALM      30.39S
ANGEL FIRE     FAIR      57  50  75 CALM      30.48S

$$
NMZ402-403-502-505>509-271600-
WESTCENTRAL MOUNTAINS/SOUTHWEST MOUNTAINS

CITY           SKY/WX    TMP DP  RH WIND       PRES   REMARKS
GALLUP         FAIR      73  52  47 NE7       30.31S
GRANTS         FAIR      68  52  55 N5        30.34S
SILVER CITY    FAIR      74  56  52 CALM      30.24S

$$
NMZ407-409-411-412-271600-
SOUTHERN DESERTS

CITY           SKY/WX    TMP DP  RH WIND       PRES   REMARKS
LORDSBURG      FAIR      77  63  61 E6        30.15S
DEMING         FAIR      76  63  64 SW6       30.16R
LAS CRUCES     PTSUNNY   74  61  63 CALM      30.19R
HOLLOMAN AFB   PTSUNNY   71  64  78 NW7       30.15R
ALAMOGORDO     CLOUDY    70  66  88 CALM      30.18R
T OR C         FAIR      77  58  51 S6        30.20R

$$
NMZ519>523-271600-
CENTRAL VALLEYS/CENTRAL HIGHLANDS

CITY           SKY/WX    TMP DP  RH WIND       PRES   REMARKS
ALBUQUERQUE    FAIR      76  59  55 VRB6      30.25S
DOUBLE EAGLE   MOSUNNY   73  57  56 CALM      30.30R
MORIARTY ARPT  FAIR      71  55  58 CALM      30.32S
CLINES CORNERS FAIR      69  53  56 NW3       30.36S
BELEN          FAIR      73  59  62 SE5       30.25S
SOCORRO        FAIR      75  59  56 CALM      30.22F

$$
NMZ524>526-539-540-271600-
SOUTHCENTRAL MOUNTAINS

CITY           SKY/WX    TMP DP  RH WIND       PRES   REMARKS
RUIDOSO          N/A     68  54  60 NW9       30.36R

$$
NMZ527>531-271600-
NORTHEAST HIGHLANDS/NORTHEAST PLAINS

CITY           SKY/WX    TMP DP  RH WIND       PRES   REMARKS
LAS VEGAS      FAIR      71  52  50 NE3       30.34R
RATON          PTSUNNY  N/A N/A N/A E9        30.29R
CLAYTON        FAIR      71  64  78 CALM      30.19S

$$
NMZ532>537-271600-
EASTCENTRAL PLAINS

CITY           SKY/WX    TMP DP  RH WIND       PRES   REMARKS
TUCUMCARI      FAIR      83  57  41 W6        30.13R
CANNON AFB     FAIR      80  65  59 SW5       30.16R
CLOVIS AIRPORT FAIR      81  61  50 SW3       30.16S

$$
NMZ028-029-538-271600-
SOUTHEAST PLAINS

CITY           SKY/WX    TMP DP  RH WIND       PRES   REMARKS
ROSWELL        FAIR      81  62  52 N5        30.12R
ARTESIA        FAIR      81  64  57 SE6       30.12S
CARLSBAD       FAIR      79  65  62 S6        30.09R
HOBBS          SUNNY     79  64  61 CALM      30.14R


$$




USA.gov is the U.S. government's official web portal to all federal, state and local government web resources and services.